CAPE
1054 986 649 366 22 195 1 42 218 186 206 106 112 79 101 361 93 79 322 68 180 464 778 889 1057 1127 1185 1321 1296 1518 1316 1105 1250 1314 1445 1387 1508 1534 1412 1532 1737 1811 2121 2255 2109 2158 2241 1679 1706
336 188 116 20 66 69 55 205 304 453 232 186 99 388 389 351 685 298 103 149 135 488 715 923 1017 1021 1332 1210 1322 1453 1374 1211 1005 1086 1311 1365 1423 1380 1475 1556 1681 1743 1770 1838 2090 2115 2130 2552 2187
178 511 457 107 56 70 94 284 315 451 250 285 367 273 327 363 515 155 148 102 233 592 615 887 902 829 1081 1406 1264 1218 1247 1095 1105 1105 1160 1396 1473 1383 1352 1399 1564 1711 1688 1652 1833 2157 2222 2391 2286
397 949 689 140 105 209 269 192 533 503 350 231 275 81 395 658 353 206 207 111 191 534 514 1029 948 945 913 1195 1308 1295 1254 1205 1080 1034 1049 1070 1088 1151 1358 1487 1597 1729 1701 1594 1425 1266 1305 1507 1863
146 341 111 104 250 306 232 368 542 462 393 404 138 112 123 566 528 404 283 208 131 399 480 874 1103 1028 942 846 1212 1118 1186 1134 1133 1121 1069 1040 1002 983 935 920 1192 1315 1063 1211 1277 848 743 788 677
86 171 20 0 118 447 404 484 506 414 386 373 355 68 341 664 615 525 349 190 224 428 457 577 1098 976 972 828 905 1108 1145 1004 1022 1090 1035 1060 1186 1540 1479 1031 1020 982 695 607 750 911 464 454 732
0 68 24 37 190 557 467 489 432 234 255 112 402 247 466 631 679 619 306 202 273 616 505 461 526 824 893 946 968 961 1007 1010 1019 1080 1011 1029 1288 1319 1205 1206 1183 1276 1234 1095 1105 897 608 544 655
0 0 0 13 25 21 749 630 570 279 172 390 493 362 368 809 595 369 263 282 367 650 1366 1008 528 534 642 565 899 935 924 930 1016 1092 1588 1815 1283 1392 1252 1178 801 1060 1129 1074 1007 970 723 876 498
0 0 0 0 0 0 902 597 390 419 187 485 457 453 574 705 437 192 147 212 354 522 616 1370 1229 597 586 560 616 1028 1057 1129 1263 1346 1243 1017 783 896 1031 906 940 890 1077 1071 955 642 904 896 862
0 0 0 0 0 0 639 820 309 607 325 569 427 518 789 578 394 146 44 59 115 184 435 865 1059 575 582 527 880 1143 920 767 1071 1241 1138 1158 1195 1314 1065 838 244 638 962 749 195 282 284 807 698
0 0 0 0 0 0 134 699 639 716 384 527 382 590 767 650 466 221 91 25 61 208 344 485 961 1541 1278 428 795 1229 1178 1307 1521 1569 1251 1086 1130 1041 1019 897 349 3 137 407 103 160 307 552 548
0 0 0 0 0 0 11 605 707 808 696 489 446 713 785 785 660 348 175 123 280 490 533 684 839 1250 1690 1297 1329 1689 1568 1593 1463 1393 897 1115 877 846 651 430 297 303 179 80 182 144 356 344 615
0 0 0 0 0 0 45 163 505 545 799 713 698 733 821 961 856 615 283 179 351 405 572 749 998 1106 1327 1517 1568 1774 1706 1311 973 616 749 845 535 426 494 479 510 167 325 228 313 230 251 153 159
0 0 0 0 0 0 0 30 500 385 637 684 819 743 870 1063 1007 886 666 555 430 448 539 660 874 937 1244 1364 1454 1291 1114 622 816 709 778 838 575 495 563 436 211 213 137 84 81 345 338 276 74
0 0 0 0 0 0 0 0 1 283 702 717 761 818 878 1094 1094 1014 918 778 566 456 564 588 738 762 929 1045 1016 699 466 594 640 632 780 850 752 735 656 537 446 309 199 80 71 200 454 527 586
0 0 0 0 0 0 0 0 0 265 543 531 716 729 816 1059 1101 1126 988 968 844 739 561 293 492 574 683 743 639 450 579 691 712 596 701 847 847 865 746 580 564 568 390 268 127 579 728 744 759
0 0 0 0 0 0 0 0 7 249 614 721 847 792 867 1034 1133 1165 1070 958 914 725 642 424 403 424 436 538 538 475 760 762 770 799 815 1029 904 1035 946 838 940 724 481 251 135 374 285 453 418
0 0 0 0 0 0 0 0 18 456 845 1014 1005 954 992 955 999 1026 1169 1122 985 838 721 470 325 398 442 373 571 594 717 1072 1164 1096 1123 1125 1102 1183 1107 1035 882 640 447 396 266 229 460 525 458
0 0 0 0 0 0 0 0 61 470 535 496 504 428 750 1033 1151 946 862 917 1035 1056 938 718 530 600 523 352 273 437 610 989 1196 1183 1268 1215 1107 1166 1150 1097 757 661 537 798 609 501 660 731 387
0 0 0 0 0 0 0 0 69 138 164 160 102 85 11 54 433 757 802 830 814 936 1035 948 848 831 778 665 514 680 1027 1186 1143 1332 1166 1161 1106 1151 1249 1017 826 648 679 823 792 640 640 528 395
0 0 0 0 0 0 0 0 12 37 262 297 309 220 292 396 593 808 642 756 780 772 900 922 832 1009 897 919 1032 1006 984 1015 956 972 1030 1086 1144 1131 1197 1089 954 747 710 799 875 710 589 315 622
0 0 0 0 0 0 0 0 0 62 188 389 319 200 167 245 313 718 709 505 498 637 821 816 694 543 754 837 968 990 921 625 800 881 998 916 1215 1234 1149 1172 910 918 997 1073 611 1084 841 717 483
0 0 0 0 0 0 0 0 41 9 82 225 62 6 14 185 370 324 552 638 500 509 679 735 829 564 460 441 409 667 788 643 823 635 686 773 1117 1074 1318 1322 1121 974 1011 1046 829 898 613 810 595
0 0 0 0 0 2 0 0 78 48 66 77 18 7 91 251 439 511 364 508 664 467 339 612 740 560 370 275 307 420 680 626 489 522 386 682 997 997 1110 1273 1243 801 732 977 839 865 848 842 755
0 0 0 0 2 0 0 21 47 0 7 65 36 40 54 147 228 416 565 680 697 690 738 877 769 451 407 324 253 187 413 506 333 559 558 628 440 518 882 1016 1157 1131 1007 900 548 695 850 912 938
0 0 0 0 0 0 0 95 130 9 16 35 0 0 38 163 198 304 519 589 707 700 805 908 854 570 368 269 144 11 11 153 475 673 453 625 760 825 917 737 648 992 656 897 880 780 802 1112 1117
0 0 0 0 0 0 4 93 54 32 8 3 0 76 173 7 105 303 449 564 705 658 814 945 800 384 222 97 11 38 33 162 437 651 607 668 698 759 821 770 773 1001 737 918 699 436 765 549 509
0 0 1 0 0 0 0 22 48 5 22 20 3 26 24 277 425 567 724 689 783 641 606 296 50 22 132 66 68 109 115 747 826 524 708 729 1000 1012 807 699 651 788 990 803 560 468 530 590 539
0 0 0 0 0 1 0 0 9 24 15 17 9 59 722 1032 885 897 896 697 655 658 426 191 119 220 295 176 192 153 179 283 429 384 524 518 594 804 943 773 637 661 833 823 758 568 641 821 899
0 0 0 0 0 0 0 0 0 64 25 8 0 553 1225 1559 1403 1090 985 867 591 502 381 286 215 147 138 106 192 176 159 186 196 183 150 303 441 649 1064 1040 849 645 644 668 768 828 914 953 873
CIN
-162 -175 -233 -269 -119 -56 -22 -54 -61 -43 -32 -67 -74 -64 -44 -52 -51 -31 -185 -233 -166 -74 -34 -0 -8 -10 -13 -16 -16 -8 -12 -17 -11 -8 -5 -12 -13 -14 -32 -24 -11 -5 -0 -0 -0 -0 -0 -9 -7
-313 -342 -356 -318 -73 -45 -79 -67 -28 -34 -41 -64 -70 -41 -38 -39 -106 -183 -208 -195 -162 -71 -42 -13 -10 -18 -5 -9 -8 -3 -2 -11 -13 -12 -7 -10 -8 -11 -16 -13 -4 -0 -4 -1 -0 -0 -0 -0 -0
-379 -270 -164 -97 -69 -36 -24 -33 -39 -48 -59 -39 -34 -44 -51 -74 -109 -179 -192 -217 -122 -49 -49 -33 -25 -39 -10 -0 -4 -6 -5 -9 -8 -8 -6 -2 -2 -3 -4 -6 -1 -0 -1 -1 -0 -0 -0 -0 -0
-284 -198 -176 -33 -40 -29 -23 -36 -43 -36 -43 -46 -43 -63 -112 -75 -102 -163 -170 -207 -124 -47 -48 -28 -32 -31 -23 -1 -0 -0 -3 -5 -4 -7 -8 -10 -12 -5 -1 -0 -0 -0 -0 -0 -2 -0 -1 -2 -0
-332 -180 -30 -40 -13 -25 -41 -39 -37 -40 -41 -51 -92 -81 -111 -91 -94 -124 -138 -142 -146 -66 -47 -25 -19 -23 -22 -23 -0 -0 -2 -6 -5 -4 -9 -7 -10 -12 -8 -6 -0 -0 -3 -1 -3 -6 -4 -10 -17
-204 -145 -36 -0 -50 -27 -41 -54 -56 -56 -64 -84 -70 -94 -99 -98 -93 -86 -96 -125 -97 -73 -49 -39 -11 -18 -19 -31 -15 -1 -1 -8 -11 -3 -8 -6 -0 -0 -0 -0 -0 -0 -12 -13 -5 -3 -6 -10 -6
-0 -89 -49 -61 -14 -11 -34 -70 -58 -86 -94 -119 -98 -59 -107 -90 -81 -82 -93 -96 -70 -25 -42 -58 -43 -12 -21 -22 -19 -11 -6 -8 -10 -6 -12 -10 -0 -0 -0 -0 -0 -0 -0 -2 -0 -4 -8 -6 -3
-0 -0 -0 -83 -83 -24 -40 -57 -78 -84 -117 -142 -95 -47 -62 -92 -94 -98 -101 -77 -41 -23 -0 -14 -47 -34 -27 -39 -17 -15 -13 -11 -5 -6 -0 -0 -2 -0 -1 -0 -5 -2 -0 -0 -2 -4 -7 -2 -4
-0 -0 -0 -0 -0 -0 -52 -53 -124 -156 -136 -125 -104 -99 -111 -147 -141 -137 -126 -93 -77 -44 -43 -5 -10 -39 -37 -32 -22 -5 -4 -2 -0 -0 -3 -4 -0 -0 -0 -2 -3 -3 -1 -0 -1 -3 -0 -2 -3
-0 -0 -0 -0 -0 -0 -45 -64 -81 -90 -121 -114 -128 -168 -165 -179 -172 -194 -207 -197 -177 -149 -96 -27 -22 -52 -38 -30 -5 -0 -2 -3 -0 -5 -4 -3 -0 -0 -3 -4 -47 -4 -0 -5 -13 -7 -10 -1 -0
-0 -0 -0 -0 -0 -0 -66 -62 -98 -85 -68 -83 -73 -165 -188 -172 -168 -163 -169 -219 -202 -156 -121 -92 -33 -4 -14 -59 -14 -0 -0 -0 -0 -1 -4 -5 -1 -0 -1 -4 -11 -13 -24 -5 -11 -1 -4 -0 -0
-0 -0 -0 -0 -0 -0 -48 -64 -66 -91 -68 -114 -112 -157 -192 -153 -145 -151 -177 -155 -148 -118 -105 -74 -55 -28 -0 -8 -5 -0 -0 -0 -0 -5 -9 -1 -0 -4 -12 -12 -15 -12 -13 -16 -6 -7 -2 -0 -0
-0 -0 -0 -0 -0 -0 -89 -63 -48 -74 -121 -138 -180 -202 -173 -134 -115 -119 -129 -142 -151 -149 -113 -80 -54 -36 -22 -2 -0 -0 -0 -1 -6 -10 -8 -5 -13 -22 -30 -19 -17 -37 -17 -14 -9 -8 -13 -12 -10
-0 -0 -0 -0 -0 -0 -0 -78 -99 -116 -186 -184 -191 -182 -163 -132 -119 -125 -140 -147 -163 -150 -136 -102 -77 -57 -14 -15 -3 -7 -16 -34 -17 -18 -10 -17 -23 -28 -30 -30 -47 -41 -46 -58 -56 -8 -4 -6 -33
-0 -0 -0 -0 -0 -0 -0 -0 -7 -165 -181 -172 -184 -216 -185 -151 -144 -141 -134 -132 -141 -145 -147 -141 -116 -103 -53 -37 -34 -33 -53 -37 -36 -34 -28 -25 -29 -29 -32 -30 -39 -40 -44 -63 -54 -22 -5 -1 -0
-0 -0 -0 -0 -0 -0 -0 -0 -0 -215 -164 -146 -197 -200 -188 -170 -160 -141 -143 -126 -125 -141 -161 -188 -145 -120 -101 -70 -85 -71 -53 -43 -44 -38 -30 -35 -36 -33 -37 -39 -33 -37 -41 -35 -51 -1 -0 -0 -0
-0 -0 -0 -0 -0 -0 -0 -0 -204 -258 -187 -160 -182 -166 -149 -153 -164 -157 -150 -139 -120 -160 -142 -181 -171 -140 -130 -99 -83 -79 -50 -54 -44 -37 -27 -29 -40 -31 -34 -29 -20 -30 -33 -50 -78 -9 -8 -2 -5
-0 -0 -0 -0 -0 -0 -0 -0 -184 -239 -200 -155 -177 -163 -150 -161 -131 -141 -121 -112 -118 -131 -146 -168 -182 -150 -140 -116 -83 -71 -53 -33 -27 -30 -33 -41 -42 -31 -35 -25 -26 -35 -35 -36 -39 -32 -9 -1 -1
-0 -0 -0 -0 -0 -0 -0 -0 -181 -249 -228 -192 -195 -217 -186 -157 -131 -124 -137 -117 -109 -114 -122 -157 -159 -161 -144 -137 -105 -72 -68 -36 -31 -34 -31 -33 -38 -39 -35 -26 -33 -39 -32 -19 -33 -30 -11 -1 -11
-0 -0 -0 -0 -0 -0 -0 -0 -291 -319 -286 -282 -301 -305 -357 -312 -254 -190 -160 -123 -111 -116 -125 -152 -161 -162 -141 -127 -107 -74 -42 -39 -31 -34 -27 -34 -32 -37 -33 -34 -29 -40 -29 -32 -35 -35 -21 -22 -23
-0 -0 -0 -0 -0 -0 -0 -0 -249 -332 -281 -255 -248 -262 -234 -229 -221 -234 -257 -195 -135 -123 -128 -120 -161 -144 -147 -125 -78 -67 -63 -47 -42 -38 -30 -29 -31 -33 -35 -39 -28 -32 -35 -23 -31 -36 -33 -15 -21
-0 -0 -0 -0 -0 -0 -0 -0 -0 -286 -233 -169 -163 -176 -203 -215 -255 -261 -278 -277 -207 -153 -158 -147 -187 -178 -152 -133 -80 -65 -49 -27 -23 -31 -21 -16 -23 -22 -32 -39 -36 -28 -19 -19 -17 -20 -27 -24 -13
-0 -0 -0 -0 -0 -0 -0 -4 -100 -355 -186 -134 -212 -210 -147 -226 -250 -296 -311 -264 -225 -206 -169 -178 -181 -205 -199 -156 -126 -69 -30 -30 -23 -18 -18 -18 -24 -31 -25 -32 -36 -30 -25 -20 -20 -19 -22 -22 -19
-0 -0 -0 -0 -0 -9 -0 -0 -43 -141 -178 -189 -254 -298 -219 -232 -230 -336 -406 -361 -274 -268 -241 -194 -184 -176 -155 -88 -110 -40 -30 -30 -34 -27 -23 -22 -20 -25 -31 -32 -36 -27 -17 -22 -19 -22 -18 -19 -24
-0 -0 -0 -0 -11 -0 -0 -57 -54 -0 -260 -258 -275 -285 -246 -271 -235 -257 -351 -333 -278 -226 -204 -198 -150 -147 -123 -89 -67 -75 -80 -47 -30 -33 -16 -27 -23 -24 -23 -31 -32 -27 -28 -27 -18 -22 -17 -15 -19
-0 -0 -0 -0 -0 -0 -0 -39 -25 -239 -305 -382 -0 -0 -279 -248 -278 -294 -321 -337 -296 -250 -201 -166 -118 -75 -36 -26 -51 -118 -201 -109 -60 -49 -23 -18 -31 -25 -36 -36 -19 -25 -16 -20 -23 -15 -13 -12 -15
-0 -0 -0 -0 -0 -0 -72 -71 -120 -223 -272 -302 -0 -257 -234 -360 -328 -271 -288 -328 -310 -257 -191 -124 -95 -83 -23 -0 -17 -68 -136 -119 -78 -51 -18 -32 -30 -40 -53 -54 -39 -24 -12 -19 -15 -16 -9 -13 -14
-0 -0 -4 -4 -0 -0 -0 -62 -20 -49 -128 -286 -127 -287 -339 -269 -253 -233 -238 -278 -263 -238 -215 -232 -262 -173 -60 -14 -40 -48 -53 -19 -66 -48 -35 -29 -40 -46 -52 -53 -48 -33 -29 -22 -19 -20 -12 -13 -17
-0 -0 -0 -0 -0 -21 -11 -0 -26 -93 -191 -220 -344 -307 -163 -158 -194 -191 -221 -284 -284 -255 -266 -273 -231 -153 -108 -109 -88 -56 -55 -73 -71 -66 -54 -75 -71 -58 -47 -48 -47 -45 -38 -32 -19 -21 -15 -9 -13
-0 -0 -0 -0 -0 -0 -0 -0 -0 -202 -285 -333 -0 -192 -140 -125 -143 -197 -194 -239 -274 -266 -249 -246 -226 -208 -205 -197 -147 -123 -100 -105 -110 -120 -158 -135 -115 -85 -59 -35 -41 -45 -51 -42 -41 -23 -15 -23 -19
Wind_Speed
21 20 19 12 18 1 7 18 17 18 17 17 18 16 15 16 16 17 20 26 28 28 29 29 28 28 28 27 26 26 26 25 24 24 23 23 23 22 21 21 21 19 16 17 18 16 14 13 16
22 21 17 17 21 22 18 16 17 16 17 18 19 16 14 14 14 18 24 26 29 28 27 27 27 26 26 26 26 25 25 25 23 22 22 22 21 20 19 19 18 17 17 16 16 16 14 14 15
21 17 19 20 21 21 19 16 19 19 19 18 17 16 14 13 16 22 24 28 28 27 26 25 25 25 25 25 25 25 24 24 22 21 21 20 20 18 17 17 16 15 16 17 15 14 13 14 12
18 19 20 21 22 20 19 18 18 18 18 17 18 19 18 13 19 23 27 28 27 26 25 24 21 23 24 25 25 25 23 22 21 21 20 19 18 17 17 16 15 17 18 17 17 15 15 13 13
17 17 19 20 20 18 17 18 18 17 18 18 17 18 19 18 21 24 26 27 26 25 25 24 21 22 24 24 23 23 22 21 21 21 20 19 17 17 16 16 17 17 17 17 17 18 15 16 16
14 18 20 20 19 18 17 18 18 18 18 17 18 18 19 20 22 23 25 26 25 24 26 23 21 22 23 24 23 23 21 20 21 21 20 19 17 17 16 17 17 17 17 17 17 19 18 17 17
17 18 20 19 18 18 17 16 16 18 18 18 17 18 18 19 21 23 25 24 23 24 24 24 23 23 23 24 22 21 21 22 22 21 20 19 18 17 16 16 17 17 17 17 17 18 18 18 17
16 17 17 18 19 18 16 16 18 16 17 18 17 17 16 18 21 22 22 23 22 22 23 24 22 22 23 23 22 20 20 22 22 21 19 18 17 17 16 16 17 17 17 17 17 18 18 18 18
14 14 16 19 20 20 19 17 18 19 18 17 16 16 16 20 21 22 22 21 20 20 22 22 21 21 23 23 21 20 21 21 21 20 17 18 16 16 15 14 18 17 18 17 16 18 18 18 19
9 12 15 20 21 20 19 18 19 19 18 17 17 17 17 19 19 20 21 20 21 21 21 20 20 20 21 22 21 20 20 20 20 19 17 17 16 14 13 12 15 18 18 16 16 16 17 17 18
15 12 12 17 16 17 18 16 17 18 18 15 14 16 16 19 18 17 20 20 21 20 20 20 19 19 20 20 20 20 20 19 20 19 16 17 16 15 15 15 13 15 18 16 16 16 16 16 18
13 13 14 12 13 16 16 17 15 13 17 20 14 14 15 15 17 18 19 21 20 18 20 19 19 18 19 19 21 20 19 18 19 18 17 17 17 16 15 15 15 13 14 16 16 16 16 16 18
14 15 16 14 12 13 15 13 14 12 13 19 15 13 13 13 16 17 16 18 19 18 18 18 19 17 19 19 20 18 18 17 19 19 18 18 17 16 14 15 14 12 14 15 16 17 17 17 16
16 18 17 11 11 13 12 12 13 17 17 16 13 12 10 11 13 14 16 14 17 19 17 14 19 18 17 20 16 15 15 17 17 20 19 19 19 17 15 14 13 13 11 19 19 19 18 18 18
18 18 18 15 11 13 12 10 12 15 15 14 12 10 9 9 10 12 15 14 14 14 11 15 17 16 17 20 16 8 16 16 17 20 19 17 19 18 17 15 14 12 12 17 18 18 18 19 19
17 17 18 18 20 15 11 11 17 13 13 12 11 10 8 9 12 10 11 12 10 8 9 7 10 15 16 16 12 7 24 20 15 17 20 19 18 18 17 16 14 11 12 13 15 17 14 15 16
16 17 20 21 21 15 12 14 16 14 11 10 10 10 8 9 13 14 12 13 10 6 4 6 13 16 15 10 5 29 24 25 19 14 19 19 19 17 18 15 15 15 14 14 14 15 15 15 15
17 18 21 18 19 19 13 6 15 14 11 10 9 9 9 10 12 15 16 12 13 10 7 6 8 16 7 3 18 28 29 29 20 13 15 18 18 17 15 15 13 15 15 15 15 14 14 14 15
14 15 17 17 18 18 17 9 18 15 11 10 8 8 8 10 13 14 14 13 13 9 6 12 11 8 5 6 12 32 33 31 29 12 18 13 11 11 10 9 8 11 17 14 14 14 13 13 15
13 14 14 15 19 17 14 9 17 18 13 10 6 8 15 14 9 11 10 16 19 14 15 15 15 12 10 7 9 26 28 29 29 27 17 1 7 3 4 3 5 6 6 20 12 12 13 10 10
10 9 12 13 19 18 17 15 16 15 11 10 9 6 7 9 10 8 9 16 15 16 14 12 7 7 8 8 14 19 25 27 26 25 17 3 1 3 5 2 3 8 9 20 6 8 10 9 12
11 10 10 13 16 19 18 7 18 13 10 8 8 6 13 24 23 12 7 9 12 13 11 7 6 8 9 10 16 22 27 22 29 30 26 13 10 8 6 5 5 6 13 14 18 17 12 13 9
13 12 12 14 15 15 18 13 12 14 11 10 11 8 12 5 19 12 6 10 8 7 5 5 3 6 10 15 20 30 34 33 31 29 32 27 16 2 9 9 9 8 14 17 19 18 17 6 6
11 10 10 11 15 11 14 18 21 15 15 14 22 22 9 13 18 24 17 10 8 6 6 4 2 5 7 12 18 27 32 34 34 32 33 31 10 1 7 6 9 8 16 19 17 17 20 12 5
10 14 17 16 16 16 16 18 18 16 13 18 20 15 7 14 21 24 21 14 12 9 8 8 8 5 5 9 11 21 31 32 36 36 35 33 30 10 4 4 12 16 20 20 18 17 19 15 6
16 19 18 17 17 19 12 18 19 17 16 18 11 8 11 10 15 18 18 15 13 11 10 10 10 9 6 6 9 14 34 33 33 33 34 30 24 26 11 4 7 25 25 21 20 20 19 16 12
16 20 9 17 17 15 15 12 6 19 16 14 19 20 15 11 10 11 17 16 14 13 12 11 11 11 9 5 11 13 28 34 35 31 30 28 26 25 23 2 10 26 26 23 20 20 21 20 21
7 12 8 14 13 13 12 16 16 20 18 16 19 21 16 14 19 20 21 18 16 15 14 13 13 13 16 21 19 22 29 27 25 26 27 25 26 27 21 16 8 18 24 28 24 25 27 24 23
13 15 15 12 18 20 21 19 13 9 15 16 18 20 20 21 22 22 22 21 18 15 14 13 13 13 16 18 19 22 26 25 23 24 24 25 26 26 23 14 13 10 21 23 23 22 25 23 21
15 15 15 11 16 21 22 16 11 20 14 15 18 19 19 20 21 21 22 23 21 18 16 14 15 14 12 13 14 16 26 22 14 26 27 26 29 28 24 16 12 14 24 22 19 18 20 20 22
Wind_Direction
79 81 104 230 106 96 247 102 101 96 100 104 107 115 108 115 119 118 119 126 124 125 126 129 125 123 121 117 116 116 120 120 116 111 110 110 103 93 87 84 87 78 61 65 67 52 43 37 57
80 78 129 116 84 81 110 113 88 93 96 89 96 98 100 115 137 116 110 123 125 124 125 126 126 125 124 123 119 118 122 124 118 113 114 113 108 101 91 81 75 66 64 62 62 66 53 47 61
106 125 94 69 65 75 100 114 69 81 74 88 88 96 104 119 111 112 120 121 124 123 125 126 127 127 129 129 128 127 124 126 122 120 119 114 113 104 92 91 83 69 80 84 74 56 51 54 44
118 74 75 52 40 76 84 87 81 68 69 80 75 62 83 149 108 122 119 123 125 123 126 126 123 125 128 133 136 136 133 133 131 132 130 127 120 115 113 113 108 121 124 120 112 87 81 60 68
97 93 18 7 36 65 85 86 78 80 62 60 75 65 81 47 96 110 120 126 126 126 129 127 125 127 131 134 134 138 138 136 137 140 146 145 142 142 141 141 151 142 143 149 149 149 126 144 142
84 59 7 7 30 39 81 93 74 60 50 75 53 66 81 105 103 113 123 128 127 126 132 129 127 128 134 138 136 139 139 138 143 150 154 153 149 151 143 151 159 160 158 166 172 182 170 165 154
352 347 10 20 16 49 74 82 76 58 57 52 66 52 82 106 113 119 124 126 127 128 131 134 134 135 137 142 138 141 142 151 155 158 157 162 162 159 159 162 167 176 176 175 175 178 179 174 158
353 351 344 15 36 53 69 76 60 60 54 52 81 63 88 112 114 117 122 127 128 129 133 137 135 137 140 145 143 142 147 157 162 167 162 166 159 166 166 169 184 187 189 181 173 178 181 176 166
44 330 352 15 48 55 77 75 50 38 43 52 62 40 71 106 111 119 125 128 130 135 139 139 136 139 145 147 145 147 155 160 168 169 162 168 163 164 162 154 192 188 189 177 165 180 173 177 174
290 329 359 64 55 51 70 73 52 49 48 52 55 42 81 109 116 125 135 138 141 141 143 142 140 140 144 152 150 153 159 162 170 170 163 164 165 159 156 138 184 201 187 178 172 166 159 164 169
158 325 184 68 95 81 57 70 66 49 55 76 82 72 91 117 122 128 139 142 145 144 143 148 145 143 145 150 154 158 161 164 172 175 161 164 164 159 157 162 138 173 198 172 170 155 145 149 162
289 169 70 234 110 65 52 62 66 91 48 34 73 82 92 111 125 132 139 145 145 146 149 150 150 148 152 149 158 160 159 162 168 174 166 166 165 158 159 159 163 150 169 166 161 148 143 145 162
287 265 247 228 172 76 56 62 63 75 57 19 57 75 95 112 125 133 131 138 145 147 150 151 153 153 153 155 159 156 160 161 171 176 170 170 171 169 159 168 163 150 164 181 162 159 161 163 159
248 258 239 178 123 71 62 54 64 37 40 42 64 77 97 116 125 129 140 137 149 155 152 147 159 157 157 162 154 151 150 157 161 181 175 173 181 172 166 162 150 146 133 236 217 193 175 180 182
260 277 293 12 52 34 58 58 46 35 45 46 60 74 99 121 127 142 149 152 151 152 147 155 157 156 163 168 159 138 156 152 158 174 179 168 178 176 177 176 159 152 152 193 195 183 180 190 187
329 348 347 10 3 24 60 41 34 50 48 59 73 75 101 138 153 150 154 157 150 149 155 157 150 160 164 165 154 140 198 172 154 166 184 181 172 177 169 178 176 149 158 161 165 166 148 164 173
344 346 340 326 8 34 49 23 27 31 59 91 80 81 99 135 163 168 165 170 166 166 167 164 164 168 165 164 166 210 260 196 180 159 181 188 182 175 181 173 180 181 178 170 146 152 166 168 165
342 347 346 13 14 16 36 88 19 34 54 77 100 113 133 150 170 178 182 172 176 177 177 177 172 174 172 247 274 252 249 249 252 168 173 182 184 173 164 168 159 166 176 162 149 146 146 170 179
9 7 7 16 17 19 18 63 7 33 99 69 96 136 156 186 193 187 185 184 176 184 202 182 183 188 201 258 278 245 239 249 257 300 186 170 155 151 144 131 109 135 179 157 151 163 156 156 170
10 6 10 21 11 26 47 71 18 15 63 79 127 190 227 224 184 185 182 189 189 183 184 182 184 186 188 252 269 262 259 258 261 269 290 242 157 114 116 90 80 40 27 207 150 142 152 99 105
28 40 17 18 10 21 23 27 25 43 96 100 99 144 108 51 340 154 145 176 179 188 183 188 206 200 203 242 275 276 270 268 271 274 292 296 188 330 333 32 2 338 337 290 273 115 142 49 22
11 51 32 18 16 2 20 120 37 79 149 152 132 135 57 348 328 359 111 147 160 170 165 178 205 222 256 263 272 272 268 272 265 256 271 297 302 306 317 326 328 330 309 319 308 314 340 180 38
11 22 19 4 17 26 352 128 125 87 110 110 70 84 65 148 289 273 80 154 155 142 134 161 206 253 260 266 268 267 261 258 258 264 255 271 297 260 310 311 308 310 301 300 302 304 311 25 51
29 38 35 35 9 94 295 340 351 75 74 57 19 23 102 275 300 343 36 84 101 88 83 80 14 296 267 268 266 263 261 259 254 261 254 258 307 270 303 313 308 300 290 291 301 302 299 327 41
98 153 181 145 185 223 1 5 19 40 63 34 25 54 131 277 311 332 23 65 76 77 69 50 23 345 261 259 251 250 257 259 252 249 248 249 263 298 286 262 299 293 284 288 294 298 297 310 349
157 175 169 161 213 271 54 359 11 27 40 30 77 124 111 109 67 300 48 68 70 66 71 65 63 65 44 296 229 244 240 248 257 257 253 266 285 285 314 204 292 279 279 285 287 292 296 305 320
150 179 129 198 225 207 245 203 179 357 32 75 60 64 81 102 101 100 60 66 69 70 72 74 76 74 57 25 274 237 241 244 247 264 271 275 285 292 295 276 305 283 279 284 288 289 289 295 297
187 61 221 248 148 172 186 238 228 334 27 67 50 44 73 84 61 56 48 62 70 70 68 79 69 69 72 74 130 224 235 247 261 278 278 283 287 290 298 304 307 297 287 279 283 283 280 287 292
310 320 324 6 254 255 294 277 195 96 33 45 43 36 40 46 45 46 43 54 66 72 71 75 79 87 85 109 135 179 217 253 278 280 285 286 289 294 297 306 301 297 291 288 283 283 282 286 294
309 321 330 179 209 267 282 247 116 310 27 40 31 32 37 38 42 45 37 35 42 61 63 63 66 78 105 117 127 161 228 280 311 281 287 294 288 288 295 303 302 296 284 289 285 283 286 288 289